Princeton, MN

4:31 AM CDT on September 17, 2019 (GMT -0500)
Princeton Municipal

Weather History for KPNM - July, 2019

Change the Weather History Date:

Saturday, July 20, 2019

  Actual Average Record
Temperature  
Mean Temperature 67 °F -  
Max Temperature 75 °F 79 °F 93 °F (2005)
Min Temperature 59 °F 57 °F 37 °F (2001)
Cooling Degree Days 2    
Growing Degree Days 17 (Base 50)    
Moisture  
Dew Point 60 °F    
Average Humidity 80    
Maximum Humidity 100    
Minimum Humidity 53    
Precipitation  
Precipitation 0.00 in - - ()
Sea Level Pressure  
Sea Level Pressure 29.90 in    
Wind  
Wind Speed 4 mph (NNW)    
Max Wind Speed 10 mph    
Max Gust Speed 18 mph    
Visibility 8 miles    
Events Fog , Rain , Thunderstorm    
Averages and records for this station are not official NWS values.
T = Trace of Precipitation, MM = Missing Value Source: NWS Daily Summary

Daily Weather History Graph

Daily Weather History Graph

Search for Another Location

Airport or City:

Astronomy

Jul. 20, 2019 Rise Set
Actual Time 5:44 AM CDT 8:56 PM CDT
Civil Twilight 5:08 AM CDT 9:32 PM CDT
Nautical Twilight 4:22 AM CDT 10:18 PM CDT
Astronomical Twilight 3:24 AM CDT 11:15 PM CDT
Moon 11:14 PM CDT (7/20) 9:16 AM CDT (7/20)
Length of Visible Light 16h 23m
Length of Day
15h 11m
Waning Gibbous, 87% of the Moon is Illuminated
Jul 20
Waning Gibbous
Jul 24
Last Quarter
Jul 31
New
Aug 7
First Quarter
Aug 15
Full

Hourly Weather History & Observations

Time (CDT) Temp. Dew Point Humidity Pressure Visibility Wind Dir Wind Speed Gust Speed Precip Events Conditions
12:16 AM 69.8 °F 68.0 °F 94% 29.78 in 10.0 mi NNW 5.8 mph - N/A   Clear
12:35 AM 69.8 °F 68.0 °F 94% 29.78 in 10.0 mi NNW 5.8 mph - N/A   Clear
12:55 AM 69.8 °F 68.0 °F 94% 29.78 in 10.0 mi NNW 4.6 mph - N/A   Clear
12:56 AM 69.8 °F 68.0 °F 94% 29.79 in 10.0 mi NNW 4.6 mph - N/A   Clear
1:19 AM 69.8 °F 68.0 °F 94% 29.78 in 10.0 mi Calm Calm - N/A   Clear
1:37 AM 69.8 °F 66.2 °F 88% 29.78 in 10.0 mi NNW 3.5 mph - N/A   Clear
2:15 AM 68.0 °F 66.2 °F 94% 29.78 in 10.0 mi Calm Calm - N/A   Clear
2:35 AM 68.0 °F 66.2 °F 94% 29.78 in 10.0 mi Calm Calm - N/A   Clear
2:58 AM 66.2 °F 64.4 °F 94% 29.79 in 4.0 mi Calm Calm - N/A   Clear
3:16 AM 66.2 °F 64.4 °F 94% 29.80 in 1.8 mi Calm Calm - N/A   Clear
3:35 AM 66.2 °F 64.4 °F 94% 29.80 in 0.5 mi Calm Calm - N/A Fog Fog
3:36 AM 66.2 °F 64.4 °F 94% 29.80 in 0.5 mi Calm Calm - N/A Fog Fog
3:55 AM 66.2 °F 64.4 °F 94% 29.81 in 2.0 mi Calm Calm - N/A   Clear
3:56 AM 64.4 °F 64.4 °F 100% 29.81 in 2.0 mi Calm Calm - N/A   Clear
4:19 AM 64.4 °F 64.4 °F 100% 29.82 in 0.8 mi Calm Calm - N/A   Mist
4:37 AM 64.4 °F 62.6 °F 94% 29.83 in 0.2 mi Calm Calm - N/A Fog Fog
4:55 AM 64.4 °F 64.4 °F 100% 29.83 in 2.5 mi Calm Calm - N/A   Scattered Clouds
4:56 AM 64.4 °F 64.4 °F 100% 29.83 in 3.0 mi Calm Calm - N/A   Scattered Clouds
5:15 AM 64.4 °F 64.4 °F 100% 29.85 in 10.0 mi NW 4.6 mph - N/A   Clear
5:16 AM 64.4 °F 64.4 °F 100% 29.85 in 10.0 mi NNW 4.6 mph - N/A   Clear
5:35 AM 66.2 °F 64.4 °F 94% 29.85 in 10.0 mi NNW 6.9 mph - N/A   Clear
5:40 AM 66.2 °F 64.4 °F 94% 29.86 in 10.0 mi NNW 6.9 mph - N/A   Clear
5:58 AM 66.2 °F 64.4 °F 94% 29.85 in 10.0 mi North 8.1 mph - N/A   Clear
6:16 AM 66.2 °F 64.4 °F 94% 29.85 in 10.0 mi North 9.2 mph - N/A   Clear
6:35 AM 66.2 °F 60.8 °F 83% 29.85 in 10.0 mi North 8.1 mph - N/A   Clear
6:55 AM 66.2 °F 60.8 °F 83% 29.83 in 10.0 mi North 9.2 mph 16.1 mph N/A   Clear
7:19 AM 66.2 °F 57.2 °F 73% 29.86 in 10.0 mi NNE 9.2 mph 18.4 mph N/A   Clear
7:37 AM 66.2 °F 57.2 °F 73% 29.85 in 10.0 mi North 10.4 mph - N/A   Clear
7:55 AM 66.2 °F 55.4 °F 68% 29.85 in 10.0 mi North 6.9 mph - N/A   Scattered Clouds
8:15 AM 66.2 °F 55.4 °F 68% 29.87 in 10.0 mi North 5.8 mph - N/A   Scattered Clouds
8:16 AM 66.2 °F 55.4 °F 68% 29.87 in 10.0 mi North 5.8 mph - N/A   Scattered Clouds
8:35 AM 66.2 °F 55.4 °F 68% 29.89 in 10.0 mi Calm Calm - N/A   Scattered Clouds
8:58 AM 66.2 °F 57.2 °F 73% 29.98 in 10.0 mi South 5.8 mph - N/A Rain , Thunderstorm Light Thunderstorms and Rain
9:15 AM 62.6 °F 59.0 °F 88% 29.88 in 10.0 mi East 10.4 mph 18.4 mph N/A Rain Light Rain
9:35 AM 62.6 °F 57.2 °F 82% 29.90 in 10.0 mi North 4.6 mph - N/A Rain Light Rain
9:55 AM 62.6 °F 57.2 °F 82% 29.89 in 10.0 mi Calm Calm - N/A Rain Light Rain
10:19 AM 62.6 °F 59.0 °F 88% 29.91 in 10.0 mi WNW 4.6 mph - N/A Rain , Thunderstorm Light Thunderstorms and Rain
10:37 AM 62.6 °F 60.8 °F 94% 29.94 in 7.0 mi SSW 3.5 mph - N/A Rain Rain
10:56 AM 62.6 °F 60.8 °F 94% 29.95 in 3.0 mi SSW 3.5 mph - N/A Rain Rain
11:15 AM 62.6 °F 60.8 °F 94% 29.96 in 3.0 mi South 6.9 mph - N/A Rain Rain
11:16 AM 62.6 °F 60.8 °F 94% 29.96 in 3.0 mi SSE 8.1 mph - N/A Rain Rain
11:35 AM 60.8 °F 59.0 °F 94% 29.92 in 7.0 mi SE 9.2 mph - N/A Rain Rain
11:40 AM 60.8 °F 59.0 °F 94% 29.88 in 10.0 mi ESE 10.4 mph - N/A Rain , Thunderstorm Thunderstorms and Rain
11:58 AM 60.8 °F 57.2 °F 88% 29.89 in 7.0 mi Calm Calm - N/A Rain Light Rain
12:16 PM 60.8 °F 57.2 °F 88% 29.86 in 10.0 mi NNE 5.8 mph - N/A Rain Light Rain
12:35 PM 62.6 °F 59.0 °F 88% 29.83 in 10.0 mi NE 8.1 mph - N/A   Clear
12:36 PM 62.6 °F 59.0 °F 88% 29.82 in 10.0 mi NE 9.2 mph - N/A   Clear
12:55 PM 64.4 °F 59.0 °F 83% 29.82 in 10.0 mi Calm Calm - N/A   Clear
12:56 PM 64.4 °F 59.0 °F 83% 29.83 in 10.0 mi Calm Calm - N/A   Clear
1:19 PM 66.2 °F 60.8 °F 83% 29.84 in 10.0 mi SE 6.9 mph - N/A   Clear
1:37 PM 66.2 °F 59.0 °F 78% 29.86 in 10.0 mi Calm Calm - N/A   Clear
1:55 PM 69.8 °F 59.0 °F 68% 29.89 in 10.0 mi Calm Calm - N/A   Clear
1:56 PM 69.8 °F 60.8 °F 73% 29.89 in 10.0 mi Calm Calm - N/A   Clear
2:15 PM 69.8 °F 57.2 °F 64% 29.91 in 10.0 mi Calm Calm - N/A   Clear
2:35 PM 71.6 °F 57.2 °F 60% 29.92 in 10.0 mi Calm Calm - N/A   Clear
2:58 PM 71.6 °F 57.2 °F 60% 29.91 in 10.0 mi WNW 3.5 mph - N/A   Clear
3:16 PM 73.4 °F 59.0 °F 61% 29.92 in 10.0 mi NW 6.9 mph - N/A   Clear
3:35 PM 73.4 °F 57.2 °F 57% 29.93 in 10.0 mi West 6.9 mph - N/A   Clear
3:36 PM 73.4 °F 57.2 °F 57% 29.93 in 10.0 mi West 5.8 mph - N/A   Clear
3:55 PM 75.2 °F 57.2 °F 53% 29.93 in 10.0 mi NW 5.8 mph - N/A   Clear
3:56 PM 75.2 °F 57.2 °F 53% 29.93 in 10.0 mi NNW 6.9 mph - N/A   Clear
4:19 PM 75.2 °F 57.2 °F 53% 29.94 in 10.0 mi NW 4.6 mph - N/A   Clear
4:37 PM 75.2 °F 59.0 °F 57% 29.94 in 10.0 mi NW 6.9 mph - N/A   Clear
4:55 PM 75.2 °F 59.0 °F 57% 29.95 in 10.0 mi NW 9.2 mph - N/A   Clear
4:56 PM 75.2 °F 57.2 °F 53% 29.95 in 10.0 mi NW 10.4 mph - N/A   Clear
5:15 PM 75.2 °F 57.2 °F 53% 29.94 in 10.0 mi NW 9.2 mph - N/A   Clear
5:16 PM 75.2 °F 57.2 °F 53% 29.94 in 10.0 mi NW 9.2 mph - N/A   Clear
5:35 PM 75.2 °F 59.0 °F 57% 29.95 in 10.0 mi WNW 9.2 mph - N/A   Clear
5:40 PM 75.2 °F 57.2 °F 53% 29.95 in 10.0 mi NNW 8.1 mph - N/A   Clear
5:58 PM 75.2 °F 59.0 °F 57% 29.95 in 10.0 mi NNW 5.8 mph - N/A   Clear
6:16 PM 75.2 °F 59.0 °F 57% 29.95 in 10.0 mi NNW 3.5 mph - N/A   Clear
6:35 PM 75.2 °F 57.2 °F 53% 29.95 in 10.0 mi NNW 6.9 mph - N/A   Clear
6:55 PM 75.2 °F 59.0 °F 57% 29.95 in 10.0 mi NW 5.8 mph - N/A   Clear
6:56 PM 75.2 °F 59.0 °F 57% 29.95 in 10.0 mi NNW 5.8 mph - N/A   Clear
7:19 PM 75.2 °F 59.0 °F 57% 29.96 in 10.0 mi NNW 4.6 mph - N/A   Clear
7:37 PM 75.2 °F 59.0 °F 57% 29.96 in 10.0 mi NW 3.5 mph - N/A   Clear
7:55 PM 73.4 °F 60.8 °F 65% 29.96 in 10.0 mi Calm Calm - N/A   Clear
7:56 PM 73.4 °F 60.8 °F 65% 29.96 in 10.0 mi Calm Calm - N/A   Clear
8:15 PM 71.6 °F 62.6 °F 73% 29.96 in 10.0 mi Calm Calm - N/A   Clear
8:35 PM 69.8 °F 62.6 °F 78% 29.96 in 10.0 mi Calm Calm - N/A   Clear
8:58 PM 66.2 °F 62.6 °F 88% 29.97 in 10.0 mi Calm Calm - N/A   Clear
9:16 PM 64.4 °F 62.6 °F 94% 29.98 in 10.0 mi Calm Calm - N/A   Clear
9:35 PM 64.4 °F 60.8 °F 88% 29.98 in 10.0 mi Calm Calm - N/A   Clear
9:36 PM 62.6 °F 60.8 °F 94% 29.98 in 10.0 mi Calm Calm - N/A   Clear
9:55 PM 62.6 °F 60.8 °F 94% 29.99 in 10.0 mi Calm Calm - N/A   Clear
10:19 PM 60.8 °F 60.8 °F 100% 30.00 in 10.0 mi Calm Calm - N/A   Clear
10:37 PM 60.8 °F 60.8 °F 100% 29.99 in 10.0 mi Calm Calm - N/A   Clear
10:55 PM 60.8 °F 59.0 °F 94% 29.99 in 10.0 mi Calm Calm - N/A   Clear
11:15 PM 60.8 °F 57.2 °F 88% 29.99 in 3.0 mi Calm Calm - N/A   Clear
11:16 PM 60.8 °F 59.0 °F 94% 29.99 in 2.0 mi Calm Calm - N/A   Clear
11:35 PM 60.8 °F 59.0 °F 94% 29.99 in 10.0 mi Calm Calm - N/A   Clear
11:40 PM 59.0 °F 57.2 °F 94% 29.99 in 7.0 mi Calm Calm - N/A   Clear
11:58 PM 60.8 °F 59.0 °F 94% 30.00 in 0.8 mi Calm Calm - N/A   Mist